GW6307 Weather Reports


Display with metric or nautical units.
time (UTC)temp
F
wind
direction
speed
MPH
gust
MPH
rain 1hr
in
rain 24hr
in
rain mn
in
humidity
%
barometer
mb
20260505210019 68 360 6.0 0.0 0.00 0.00 0.22 51 1007.6
20260505204558 67 162 6.0 0.0 0.00 0.00 0.22 50 1007.7
20260505203029 68 169 6.0 0.0 0.00 0.00 0.22 49 1007.6
20260505201607 69 137 7.0 0.0 0.00 0.00 0.22 50 1007.5
20260505200035 67 129 3.0 0.0 0.00 0.00 0.22 55 1007.5
20260505194504 65 360 4.0 0.0 0.00 0.00 0.22 57 1007.8
20260505193047 65 360 5.0 0.0 0.00 0.00 0.22 59 1007.7
20260505191513 65 360 4.0 0.0 0.00 0.00 0.22 60 1007.8
20260505190107 65 360 3.0 0.0 0.00 0.00 0.22 61 1008.2
20260505184525 64 360 3.0 0.0 0.00 0.00 0.22 64 1008.4
20260505183102 64 360 3.0 0.0 0.00 0.00 0.22 66 1008.6
20260505181534 62 360 3.0 0.0 0.00 0.00 0.22 67 1008.8
20260505180005 62 360 3.0 0.0 0.00 0.00 0.22 68 1008.8
20260505174544 63 360 3.0 0.0 0.00 0.00 0.22 68 1008.8
20260505173021 62 360 3.0 0.0 0.00 0.00 0.22 69 1008.6
20260505171557 61 360 2.0 0.0 0.00 0.00 0.22 73 1008.7
20260505170032 60 360 3.0 0.0 0.00 0.00 0.22 75 1008.6
20260505164502 59 360 3.0 0.0 0.00 0.00 0.22 77 1008.6
20260505163041 58 360 3.0 0.0 0.00 0.00 0.22 79 1008.3
20260505161516 58 360 2.0 0.0 0.00 0.00 0.22 81 1008.3
20260505153111 57 360 3.0 0.0 0.00 0.00 0.22 82 1008.3
20260505151535 57 360 2.0 0.0 0.00 0.00 0.22 84 1008.2
20260505130106 54 360 0.0 0.0 0.00 0.00 0.22 91 1007.0
20260505124536 54 360 0.0 0.0 0.00 0.00 0.22 91 1006.7
20260505123011 54 360 0.0 0.0 0.00 0.00 0.22 92 1006.5
20260505121549 54 360 0.0 0.0 0.00 0.00 0.22 93 1006.6
20260505120028 54 360 0.0 0.0 0.00 0.00 0.22 93 1006.3
20260505114601 54 360 0.0 0.0 0.00 0.00 0.22 93 1006.2
20260505113022 54 360 0.0 0.0 0.00 0.00 0.21 93 1006.4
20260505111604 54 360 0.0 0.0 0.00 0.00 0.21 93 1006.5
20260505101517 54 360 0.0 0.0 0.00 0.00 0.18 94 1007.1
20260505094523 54 360 0.0 0.0 0.00 0.00 0.18 93 1007.0
20260505093058 54 360 0.0 0.0 0.00 0.00 0.17 93 1007.1
20260505091540 54 360 1.0 0.0 0.00 0.00 0.16 93 1007.2
20260505090006 54 360 2.0 0.0 0.00 0.00 0.14 93 1007.6
20260505084541 55 360 2.0 0.0 0.00 0.00 0.13 92 1008.2
20260505083020 55 360 3.0 0.0 0.00 0.00 0.11 93 1008.5
20260505081606 55 360 3.0 0.0 0.00 0.00 0.10 93 1008.4
20260505080047 55 360 4.0 0.0 0.00 0.00 0.08 93 1008.8
20260505074505 55 360 4.0 0.0 0.00 0.00 0.07 92 1009.0
20260505073055 55 360 3.0 0.0 0.00 0.00 0.04 93 1009.4
20260505071518 55 360 2.0 0.0 0.00 0.00 0.02 92 1009.2
20260505070100 55 360 2.0 0.0 0.00 0.00 0.00 92 1009.5
20260505064530 55 360 2.0 0.0 0.00 0.00 0.16 91 1009.3
20260505063005 55 360 1.0 0.0 0.00 0.00 0.14 90 1009.6
20260505061544 55 360 1.0 0.0 0.00 0.00 0.12 89 1009.7
20260505060023 55 360 0.0 0.0 0.00 0.00 0.12 90 1009.3
20260505054550 55 360 1.0 0.0 0.00 0.00 0.11 89 1009.2
20260505053022 55 360 1.0 0.0 0.00 0.00 0.11 89 1009.4
20260505051501 55 360 2.0 0.0 0.00 0.00 0.10 87 1008.9
20260505050118 55 360 3.0 0.0 0.00 0.00 0.10 88 1009.2
20260505041546 56 360 1.0 0.0 0.00 0.00 0.05 82 1008.9
20260505040008 56 360 2.0 0.0 0.00 0.00 0.04 80 1008.8
20260505034545 56 360 3.0 0.0 0.00 0.00 0.04 79 1008.5
20260505033018 56 360 1.0 0.0 0.00 0.00 0.04 83 1008.1
20260505031604 56 360 3.0 0.0 0.00 0.00 0.04 83 1007.7
20260505030043 56 360 4.0 0.0 0.00 0.00 0.04 80 1007.6
20260505024528 56 360 6.0 0.0 0.00 0.00 0.03 77 1008.0
20260505023005 56 360 7.0 0.0 0.00 0.00 0.03 75 1007.3
20260505021546 55 360 8.0 0.0 0.00 0.00 0.03 74 1007.7
20260505020003 56 360 4.0 0.0 0.00 0.00 0.02 73 1008.2
20260505014603 57 360 4.0 0.0 0.00 0.00 0.01 69 1008.4
20260505013026 60 360 4.0 0.0 0.00 0.00 0.00 59 1008.3
20260505011512 63 360 5.0 0.0 0.00 0.00 0.00 49 1007.8
20260505010058 65 360 5.0 0.0 0.00 0.00 0.00 44 1007.8
20260505004539 66 360 4.0 0.0 0.00 0.00 0.00 42 1007.6
20260505003011 66 360 4.0 0.0 0.00 0.00 0.00 43 1007.6
20260505001611 66 360 4.0 0.0 0.00 0.00 0.00 41 1007.4
20260505000034 66 360 3.0 0.0 0.00 0.00 0.00 43 1006.7
20260504234501 65 360 3.0 0.0 0.00 0.00 0.00 45 1006.9
20260504233039 65 360 4.0 0.0 0.00 0.00 0.00 46 1007.3
20260504231516 68 360 7.0 0.0 0.00 0.00 0.00 38 1008.0
20260504230051 70 360 6.0 0.0 0.00 0.00 0.00 30 1007.8
20260504224523 72 150 7.0 0.0 0.00 0.00 0.00 26 1007.7
20260504223102 72 153 8.0 0.0 0.00 0.00 0.00 25 1007.2
20260504221537 72 141 8.0 0.0 0.00 0.00 0.00 25 1007.6
20260504220018 73 145 7.0 0.0 0.00 0.00 0.00 25 1007.8
20260504214607 73 146 6.0 0.0 0.00 0.00 0.00 24 1007.5
20260504213101 73 175 4.0 0.0 0.00 0.00 0.00 26 1007.5
20260504211519 74 194 6.0 0.0 0.00 0.00 0.00 26 1007.9